Location: Freiburg+im+Breisgau
(48.0359°N, 7.8195°E)
Time: 07:11:25
(UTC+02:00)

ISS - Visible Passes

Search period start: 22 July 2018 00:00
Search period end: 01 August 2018 00:00
Orbit: 402 x 408 km, 51.6° (Epoch: 22 July)

Date Brightness Start Highest point End Pass type
(mag) Time Alt. Az. Time Alt. Az. Time Alt. Az.
22 Jul -2.7 00:30:51 10° W 00:34:02 45° N 00:37:14 10° ENE visible
22 Jul -3.0 02:07:39 10° WNW 02:10:52 51° NNE 02:14:07 10° E visible
22 Jul -3.6 03:44:12 10° WNW 03:47:23 47° SSW 03:50:34 10° SE visible
22 Jul -3.4 22:02:16 10° SW 22:05:22 42° SSE 22:08:30 10° ENE visible
22 Jul -3.1 23:38:36 10° W 23:41:50 54° NNW 23:45:05 10° ENE visible
23 Jul -2.7 01:15:29 10° WNW 01:18:40 44° N 01:20:52 18° ENE visible
23 Jul -2.0 02:52:02 10° WNW 02:53:22 22° WNW 02:53:22 22° WNW visible
23 Jul -3.6 22:46:22 10° WSW 22:49:39 72° NNW 22:52:56 10° ENE visible
24 Jul -2.6 00:23:16 10° WNW 00:26:25 42° N 00:29:10 13° ENE visible
24 Jul -2.3 01:59:53 10° WNW 02:01:45 31° WNW 02:01:45 31° WNW visible
24 Jul -3.9 21:54:14 10° WSW 21:57:30 79° SSE 22:00:48 10° ENE visible
24 Jul -2.6 23:31:00 10° W 23:34:10 43° N 23:37:21 10° ENE visible
25 Jul -3.1 01:07:45 10° WNW 01:10:47 54° N 01:10:47 54° N visible
25 Jul -2.9 22:38:43 10° W 22:41:55 50° NNW 22:45:08 10° ENE visible
26 Jul -2.8 00:15:33 10° WNW 00:18:45 46° N 00:20:00 29° ENE visible
26 Jul -1.2 01:52:06 10° WNW 01:52:38 14° WNW 01:52:38 14° WNW visible
26 Jul -3.3 21:46:26 10° W 21:49:42 64° NNW 21:52:58 10° ENE visible
26 Jul -2.6 23:23:20 10° WNW 23:26:29 42° N 23:29:20 12° ENE visible
27 Jul -2.5 00:59:55 10° WNW 01:01:57 35° WNW 01:01:57 35° WNW visible
27 Jul -2.6 22:31:02 10° WNW 22:34:11 42° N 22:37:21 10° ENE visible
28 Jul -3.5 00:07:44 10° WNW 00:11:00 62° NNE 00:11:19 57° NE visible
28 Jul -3.0 23:15:31 10° WNW 23:18:44 49° N 23:20:43 20° E visible
29 Jul -1.8 00:52:03 10° WNW 00:53:22 21° W 00:53:22 21° W visible
29 Jul -2.7 22:23:16 10° WNW 22:26:26 43° N 22:29:36 10° ENE visible
29 Jul -3.7 23:59:49 10° WNW 00:02:47 70° W 00:02:47 70° W visible
30 Jul -3.6 23:07:36 10° WNW 23:10:52 69° NNE 23:12:14 32° E visible
31 Jul -1.2 00:44:19 10° W 00:44:52 13° W 00:44:52 13° W visible
31 Jul -3.2 22:15:22 10° WNW 22:18:35 52° NNE 22:21:42 11° E visible
31 Jul -2.8 23:51:55 10° WNW 23:54:21 37° WSW 23:54:21 37° WSW visible
